Вернуться в каталог

OPS 4682 DEB

АктивенPO
NORAD 38418·DEBRIS·🇺🇸 United States

Запущен Apr 3, 1965 с Vandenberg Space Force Base

Loading…

Ближайшие Пролёты (ближайшие 24 часа)

TLE

СвежийSource: Space-Track

Эпоха: Sep 12, 2026, 13:32 UTC

1 38418U 65027DX  26255.56430628  .00000034  00000-0  86573-4 0  9998
2 38418  90.2479  10.7065 0027192 347.5227  12.5220 13.01032149562916

Отслеживайте OPS 4682 DEB в реальном времени с AllMySat

Download on the App Store